DW4479 Southwold UK current weather conditions

sailwx.info

Wind from 156

Air temperature 18.9° C
Dewpoint 13.9° C

Last reported at 2019-Jun-18 12:00 UTC.
Time now 2019-Jun-18 12:42 UTC

Location: N 52°20' E 001°41'.
View on Google Maps.

See reports from other nearby stations

  
Tides and Currents Weather Stations Pressure Air Temp Water Temp Dewpoint Dewpoint Depression Visibility Wind Speed Wind Dir Waves Ship Positions
date/time (UTC)wind fromknots sea level pressurealtimeterstation pressurevisibilityair tempwater tempwave heightnotes
2019-Jun-18 12:00 156 18.9
2019-Jun-18 11:45 200 0 18.9
2019-Jun-18 11:30 163 18.3
2019-Jun-18 11:15 226 17.8
2019-Jun-18 11:00 159 17.8
2019-Jun-18 10:45 185 0 17.8
2019-Jun-18 10:30 161 0 17.8
2019-Jun-18 10:15 178 0 17.8
2019-Jun-18 10:00 199 17.8
2019-Jun-18 09:45 172 17.8
2019-Jun-18 09:30 169 0 17.8
2019-Jun-18 09:16 201 17.8
2019-Jun-18 09:03 157 17.8
2019-Jun-18 08:48 160 17.8
2019-Jun-18 08:31 162 17.2
2019-Jun-18 08:17 155 17.2
2019-Jun-18 08:01 173 17.2
2019-Jun-18 07:46 178 16.7
2019-Jun-18 07:31 172 16.1
2019-Jun-18 07:16 172 15.6
2019-Jun-18 07:01 172 15.0
2019-Jun-18 06:45 161 14.4
2019-Jun-18 06:31 159 13.9
2019-Jun-18 06:16 159 13.3
2019-Jun-18 06:00 159 13.3
2019-Jun-18 05:46 159 12.8
2019-Jun-18 05:30 159 12.8
2019-Jun-18 05:16 159 12.2
2019-Jun-18 05:01 159 12.2
2019-Jun-18 04:46 159 12.2
2019-Jun-18 04:30 159 11.7
2019-Jun-18 04:15 159 11.7
2019-Jun-18 04:00 159 11.7
2019-Jun-18 03:45 159 11.7
2019-Jun-18 03:31 159 11.7
2019-Jun-18 03:15 159 11.7
2019-Jun-18 03:00 159 12.2
2019-Jun-18 02:45 159 12.2
2019-Jun-18 02:30 159 12.2
2019-Jun-18 02:15 159 12.8
2019-Jun-18 02:00 159 12.8
2019-Jun-18 01:45 159 12.8
2019-Jun-18 01:31 165 13.3
2019-Jun-18 01:17 165 13.3
2019-Jun-18 01:01 165 13.9
2019-Jun-18 00:46 165 13.9
2019-Jun-18 00:31 180 14.4
2019-Jun-18 00:16 180 14.4
2019-Jun-18 00:01 221 15.0
2019-Jun-17 23:46 221 15.0
2019-Jun-17 23:31 221 15.6
2019-Jun-17 23:15 221 15.6
2019-Jun-17 23:01 146 15.6
2019-Jun-17 22:45 157 15.6
2019-Jun-17 22:31 163 15.6
2019-Jun-17 22:15 169 16.1
2019-Jun-17 22:01 160 16.7
2019-Jun-17 21:46 160 16.7
2019-Jun-17 21:30 165 17.2
2019-Jun-17 21:17 162 17.2
2019-Jun-17 21:00 150 17.2
2019-Jun-17 20:45 162 17.2
2019-Jun-17 20:31 161 17.2
2019-Jun-17 20:15 156 17.8
2019-Jun-17 20:01 165 17.8
2019-Jun-17 19:46 202 18.3
2019-Jun-17 19:30 153 18.3
2019-Jun-17 19:16 142 18.9
2019-Jun-17 19:01 163 18.9
2019-Jun-17 18:47 121 3 18.9
2019-Jun-17 18:31 192 3 18.9
2019-Jun-16 23:01 149 2 15.0
2019-Jun-16 22:46 189 3 15.0
2019-Jun-16 22:30 151 3 15.6
2019-Jun-16 22:16 126 3 15.6
2019-Jun-16 22:02 182 2 15.6
2019-Jun-16 21:45 177 3 16.1
2019-Jun-16 21:31 185 3 16.1
2019-Jun-16 21:16 187 1 16.1
2019-Jun-16 21:00 164 16.7
2019-Jun-16 20:46 173 16.7
2019-Jun-16 20:31 183 2 16.7
2019-Jun-16 20:15 146 2 17.2
2019-Jun-16 20:01 170 2 17.2
2019-Jun-16 19:46 155 2 17.8
2019-Jun-16 19:30 169 3 17.8
2019-Jun-16 19:15 113 4 18.3
2019-Jun-16 19:00 242 3 18.9
2019-Jun-16 18:46 144 1 19.4
2019-Jun-16 18:30 172 4 19.4
2019-Jun-16 18:15 230 4 20.0
2019-Jun-16 18:01 227 3 20.0
2019-Jun-16 17:45 119 4 20.0
2019-Jun-16 17:30 183 5 20.6
2019-Jun-16 17:15 207 6 20.6
2019-Jun-16 17:00 190 6 19.4
2019-Jun-16 16:45 193 6 19.4
2019-Jun-16 16:31 200 6 20.0
2019-Jun-16 16:15 167 6 20.0
2019-Jun-16 16:00 164 6 19.4
2019-Jun-16 15:45 173 8 18.9
2019-Jun-16 15:30 177 7 19.4
2019-Jun-16 15:15 168 8 19.4
2019-Jun-16 15:00 185 7 18.9
2019-Jun-16 14:45 187 7 18.3
2019-Jun-16 14:30 162 7 17.8
2019-Jun-16 14:15 175 8 17.2
2019-Jun-16 14:00 215 5 17.8
2019-Jun-16 13:45 164 5 16.7
2019-Jun-16 13:30 134 6 16.1
2019-Jun-16 13:15 176 4 16.7
2019-Jun-16 13:00 181 7 17.2
2019-Jun-16 12:45 173 6 18.9
2019-Jun-16 12:32 168 7 17.8
2019-Jun-16 12:17 160 6 17.8
2019-Jun-16 12:01 136 6 18.3